User: anonymous   Login
Location: Nairn
(57.5833°N, 3.8667°W)
Time: 19:41:40
(UTC+00:00)
Language:

Cosmos 2322 Rocket - Orbit

View from above orbital plane
View from above orbital plane
View from above satellite
View from above satellite

Ground track
Ground track

The orbit data is extracted from the following two-line orbital elements,

1 23705U 95058B   20304.24357525 +.00000264 +00000-0 +16054-3 0  9997
2 23705 071.0223 326.1454 0014144 228.4442 131.5469 14.15141606291043
Epoch (UTC): 30 October 2020 05:50:44
Eccentricity: 0.0014144
inclination: 71.0223°
perigee height: 831 km
apogee height: 852 km
right ascension of ascending node: 326.1454°
argument of perigee: 228.4442°
revolutions per day: 14.15141606
mean anomaly at epoch: 131.5469°
orbit number at epoch: 29104

The dashed part of the orbit path shows where the satellite is in the earth's shadow,  

DLR